User: anonymous   Login
Location: Observatorio Las Palmas
(29.0667°N, 110.9333°W)
Time: 01:17:24
(UTC-07:00)
Language:

Skynet4D Del rocket - Orbit

View from above orbital plane
View from above orbital plane
View from above satellite
View from above satellite

Ground track
Ground track

The orbit data is extracted from the following two-line orbital elements,

1 25135U 98002B   16122.53938213  .00000187  00000-0  57892-4 0  9992
2 25135  26.8851 176.5540 0356347 287.4722 221.6721 13.62331126912344
Epoch (UTC): 01 May 2016 12:56:42
Eccentricity: 0.0356347
inclination: 26.8851°
perigee height: 763 km
apogee height: 1291 km
right ascension of ascending node: 176.5540°
argument of perigee: 287.4722°
revolutions per day: 13.62331126
mean anomaly at epoch: 221.6721°
orbit number at epoch: 91234

The dashed part of the orbit path shows where the satellite is in the earth's shadow,  

DLR